Regional Weather Roundup
Issued by NWS

Home | Current Version | Previous Version | Graphics & Text | Print | Product List | Glossary On
Versions: 1 2 3 4 5 6 7 8 9 10 11 12 13 14 15 16 17 18 19 20 21 22 23 24 25 26 27 28 29 30 31 32 33 34 35 36 37 38 39 40 41 42 43 44 45 46 47 48 49 50
000
ASUS43 KFSD 250602
RWRSD

WEATHER ROUNDUP FOR SOUTH DAKOTA
NATIONAL WEATHER SERVICE SIOUX FALLS SD
100 AM CDT SAT MAR 25 2017

NOTE: "FAIR" INDICATES FEW OR NO CLOUDS BELOW 12,000 FEET WITH NO
SIGNIFICANT WEATHER AND/OR OBSTRUCTIONS TO VISIBILITY.


SDZ001>005-009-010-012>017-250700-
NORTHWEST AND NORTH CENTRAL SOUTH DAKOTA

CITY           SKY/WX    TMP DP  RH WIND       PRES   REMARKS
BUFFALO          N/A     43  33  68 SE25      29.88F
FAITH            N/A     37  32  82 SE18      30.06F
MOBRIDGE       CLEAR     34  28  79 SE12      30.13F WCI  25
$$

SDZ012>016-024>037-041>051-057-063-072>074-250700-
SOUTHWEST AND SOUTH CENTRAL SOUTH DAKOTA

CITY           SKY/WX    TMP DP  RH WIND       PRES   REMARKS
RAPID CTY ARPT CLEAR     38  29  70 S13       30.05F
PIERRE         CLEAR     30  27  88 NE5       30.14F WCI  25
CUSTER         CLEAR     36  25  64 SW3       30.07F
ELLSWORTH AFB  CLEAR     44  30  57 S14       30.04F
PHILIP         CLEAR     34  29  82 E7        30.10F WCI  28
PINE RIDGE     CLEAR     45  31  58 CALM      30.09F
SPEARFISH      FAIR      48  28  46 SE13G21   29.96F
WINNER         FAIR      32  29  88 CALM      30.13S
$$

SDZ004>011-016>023-039-040-250700-
NORTHEAST SOUTH DAKOTA

CITY           SKY/WX    TMP DP  RH WIND       PRES   REMARKS
ABERDEEN       CLEAR     27  24  89 N3        30.20F
WATERTOWN      CLOUDY    32  31  96 NE6       30.15F WCI  26
BROOKINGS      CLOUDY    35  32  88 E12       30.14F WCI  27
SISSETON         N/A     29  28  96 NW6       30.19S WCI  23
$$

SDZ017-020-022-023-036>040-048>070-250700-
SOUTHEAST SOUTH DAKOTA

CITY           SKY/WX    TMP DP  RH WIND       PRES   REMARKS
SIOUX FALLS    CLOUDY    37  34  89 NE13      30.11F
HURON          CLOUDY    38  34  85 E7        30.16F
MITCHELL       CLOUDY    39  35  86 NE8       30.16R
YANKTON        CLOUDY    37  34  87 NE10      30.12R
$$

ABBREVIATIONS USED IN REMARKS
   TC - TEMPERATURE IN CELSIUS
  WCI - WIND CHILL INDEX
   HX - HEAT INDEX
  VSB - VISIBILITY




USA.gov is the U.S. government's official web portal to all federal, state and local government web resources and services.